TimeCST,TemperatureF,Dew PointF,Humidity,Sea Level PressureIn,VisibilityMPH,Wind Direction,Wind SpeedMPH,Gust SpeedMPH,PrecipitationIn,Events,Conditions,WindDirDegrees,DateUTC
12:53 AM,42.1,32.0,67,30.40,8.0,Variable,3.5,-,N/A,,Clear,0,2012-11-18 06:53:00
1:53 AM,41.0,32.0,70,30.39,7.0,Calm,Calm,-,N/A,,Clear,0,2012-11-18 07:53:00
2:53 AM,42.1,33.1,70,30.38,7.0,South,5.8,-,N/A,,Clear,190,2012-11-18 08:53:00
3:53 AM,42.1,33.1,70,30.38,7.0,South,3.5,-,N/A,,Clear,170,2012-11-18 09:53:00
4:53 AM,39.9,32.0,73,30.37,7.0,Calm,Calm,-,N/A,,Clear,0,2012-11-18 10:53:00
5:53 AM,36.0,30.9,82,30.36,6.0,Calm,Calm,-,N/A,,Haze,0,2012-11-18 11:53:00
6:53 AM,36.0,30.0,79,30.36,4.0,Calm,Calm,-,N/A,,Haze,0,2012-11-18 12:53:00
7:53 AM,37.0,32.0,82,30.36,5.0,Calm,Calm,-,N/A,,Haze,0,2012-11-18 13:53:00
8:53 AM,45.0,33.1,63,30.34,7.0,South,6.9,-,N/A,,Clear,190,2012-11-18 14:53:00
9:53 AM,48.9,33.1,54,30.34,9.0,Variable,3.5,-,N/A,,Clear,0,2012-11-18 15:53:00
10:53 AM,54.0,33.1,45,30.32,10.0,South,4.6,-,N/A,,Clear,180,2012-11-18 16:53:00
11:53 AM,57.0,33.1,40,30.30,10.0,Variable,4.6,-,N/A,,Clear,0,2012-11-18 17:53:00
12:53 PM,59.0,33.1,38,30.28,10.0,South,5.8,-,N/A,,Clear,180,2012-11-18 18:53:00
2:53 PM,57.0,33.1,40,30.27,10.0,Variable,5.8,-,N/A,,Clear,0,2012-11-18 20:53:00
3:53 PM,55.0,33.1,43,30.27,10.0,Variable,5.8,-,N/A,,Clear,0,2012-11-18 21:53:00
4:53 PM,53.1,33.1,47,30.27,10.0,Variable,3.5,-,N/A,,Clear,0,2012-11-18 22:53:00
5:53 PM,50.0,34.0,54,30.27,-9999.0,Calm,Calm,-,N/A,,Clear,0,2012-11-18 23:53:00
6:53 PM,50.0,36.0,59,30.28,-9999.0,Calm,Calm,-,N/A,,Clear,0,2012-11-19 00:53:00
7:53 PM,51.1,34.0,52,30.27,-9999.0,Variable,3.5,-,N/A,,Clear,0,2012-11-19 01:53:00
8:53 PM,50.0,33.1,52,30.27,-9999.0,South,6.9,-,N/A,,Clear,180,2012-11-19 02:53:00
9:53 PM,48.0,33.1,56,30.26,-9999.0,Calm,Calm,-,N/A,,Clear,0,2012-11-19 03:53:00
10:53 PM,48.0,33.1,56,30.27,-9999.0,South,5.8,-,N/A,,Clear,180,2012-11-19 04:53:00
11:53 PM,48.0,34.0,58,30.26,-9999.0,SSW,4.6,-,N/A,,Overcast,200,2012-11-19 05:53:00